FW6272 Weather Reports


Display with metric or nautical units.
time (UTC)temp
F
wind
direction
speed
MPH
gust
MPH
rain 1hr
in
rain 24hr
in
rain mn
in
humidity
%
barometer
mb
20260505121704 59 188 5.0 13.0 0.00 0.00 0.00 74 1011.5
20260505115703 55 172 1.0 5.0 0.00 0.00 0.00 92 1011.2
20260505115203 55 180 0.0 5.0 0.00 0.00 0.00 94 1011.2
20260505114703 54 135 0.0 0.0 0.00 0.00 0.00 94 1011.2
20260505114204 54 135 0.0 0.0 0.00 0.00 0.00 94 1011.2
20260505112212 54 135 0.0 0.0 0.00 0.00 0.00 94 1011.2
20260505111703 54 135 0.0 0.0 0.00 0.00 0.00 94 1011.4
20260505111203 54 132 0.0 0.0 0.00 0.00 0.00 94 1011.4
20260505110703 55 128 0.0 0.0 0.00 0.00 0.00 93 1011.2
20260505110206 55 126 0.0 0.0 0.00 0.00 0.00 93 1011.4
20260505102204 55 139 0.0 0.0 0.00 0.00 0.00 91 1010.8
20260505101704 55 137 0.0 0.0 0.00 0.00 0.00 91 1010.8
20260505101203 54 137 0.0 0.0 0.00 0.00 0.00 92 1010.5
20260505100703 54 152 0.0 0.0 0.00 0.00 0.00 92 1010.5
20260505095703 54 156 0.0 2.0 0.00 0.00 0.00 92 1010.5
20260505095203 55 149 0.0 2.0 0.00 0.00 0.00 91 1010.5
20260505094704 55 195 0.0 2.0 0.00 0.00 0.00 92 1010.5
20260505094203 55 164 0.0 0.0 0.00 0.00 0.00 91 1010.6
20260505093703 55 167 0.0 0.0 0.00 0.00 0.00 91 1010.6
20260505092703 55 154 0.0 0.0 0.00 0.00 0.00 91 1010.6
20260505092203 55 153 0.0 2.0 0.00 0.00 0.00 90 1010.3
20260505091703 56 155 0.0 2.0 0.00 0.00 0.00 90 1010.2
20260505091203 56 157 0.0 0.0 0.00 0.00 0.00 90 1010.2
20260505090203 56 154 0.0 2.0 0.00 0.00 0.00 89 1010.2
20260505085703 57 168 0.0 0.0 0.00 0.00 0.00 88 1010.5
20260505085203 57 160 0.0 2.0 0.00 0.00 0.00 88 1010.5
20260505084703 57 147 0.0 2.0 0.00 0.00 0.00 87 1010.5
20260505084204 57 150 0.0 0.0 0.00 0.00 0.00 87 1010.5
20260505083221 57 157 0.0 0.0 0.00 0.00 0.00 86 1010.5
20260505082212 57 163 0.0 0.0 0.00 0.00 0.00 85 1010.5
20260505081711 57 173 0.0 5.0 0.00 0.00 0.00 84 1010.7
20260505081212 56 181 1.0 5.0 0.00 0.00 0.00 85 1010.8
20260505080703 56 191 1.0 5.0 0.00 0.00 0.00 85 1010.5
20260505080203 56 191 1.0 5.0 0.00 0.00 0.00 86 1010.5
20260505075203 56 170 1.0 5.0 0.00 0.00 0.00 86 1010.5
20260505074704 56 181 0.0 5.0 0.00 0.00 0.00 87 1010.7
20260505074203 56 184 1.0 5.0 0.00 0.00 0.00 87 1010.5
20260505073203 57 166 0.0 2.0 0.00 0.00 0.00 86 1010.3
20260505072705 57 148 0.0 2.0 0.00 0.00 0.00 86 1010.2
20260505071203 57 196 2.0 7.0 0.00 0.00 0.00 83 1010.4
20260505070703 58 144 3.0 7.0 0.00 0.00 0.00 83 1010.2
20260505070204 58 170 2.0 7.0 0.00 0.00 0.00 83 1010.2
20260505065703 58 187 1.0 5.0 0.00 0.00 0.00 83 1010.2
20260505065203 58 192 3.0 7.0 0.00 0.00 0.00 83 1010.2
20260505064703 58 184 3.0 7.0 0.00 0.00 0.00 82 1010.2
20260505063703 58 183 2.0 7.0 0.00 0.00 0.00 82 1010.5
20260505063203 58 196 2.0 5.0 0.00 0.00 0.00 82 1010.2
20260505062703 58 172 0.0 7.0 0.00 0.00 0.00 82 1010.2
20260505062204 58 195 1.0 5.0 0.00 0.00 0.00 81 1010.5
20260505061703 58 205 3.0 5.0 0.00 0.00 0.00 80 1010.5
20260505061203 58 161 3.0 7.0 0.00 0.00 0.00 80 1010.2
20260505060703 59 196 3.0 7.0 0.00 0.00 0.00 79 1010.2
20260505060204 59 193 3.0 10.0 0.00 0.00 0.00 79 1010.2
20260505055703 59 198 3.0 10.0 0.00 0.00 0.00 78 1010.4
20260505054703 59 203 3.0 5.0 0.00 0.00 0.00 78 1010.2
20260505054203 59 201 3.0 5.0 0.00 0.00 0.00 78 1010.2
20260505053704 59 197 3.0 7.0 0.00 0.00 0.00 78 1010.5
20260505053204 59 196 2.0 7.0 0.00 0.00 0.00 77 1010.5
20260505052703 60 176 2.0 10.0 0.00 0.00 0.00 77 1010.4
20260505051204 60 184 4.0 13.0 0.00 0.00 0.00 75 1010.5
20260505050703 60 190 3.0 7.0 0.00 0.00 0.00 75 1010.5
20260505041703 61 200 4.0 10.0 0.00 0.00 0.00 72 1010.8
20260505041203 61 191 3.0 10.0 0.00 0.00 0.00 72 1010.5
20260505040703 60 202 3.0 7.0 0.00 0.00 0.00 72 1010.7
20260505040203 60 167 2.0 10.0 0.00 0.00 0.00 72 1010.5
20260505035703 60 193 1.0 7.0 0.00 0.00 0.00 72 1010.5
20260505035204 60 188 4.0 7.0 0.00 0.00 0.00 71 1010.5
20260505034704 60 176 3.0 10.0 0.00 0.00 0.00 71 1010.7
20260505033703 58 165 3.0 10.0 0.00 0.00 0.00 72 1010.5
20260505033203 58 181 2.0 10.0 0.00 0.00 0.00 73 1010.5
20260505032704 57 194 3.0 10.0 0.00 0.00 0.00 75 1010.8
20260505031705 57 137 0.0 5.0 0.00 0.00 0.00 77 1010.8
20260505030706 57 173 0.0 2.0 0.00 0.00 0.00 79 1010.8
20260505025704 58 159 0.0 0.0 0.00 0.00 0.00 77 1010.8
20260505024703 58 193 0.0 0.0 0.00 0.00 0.00 77 1010.8
20260505024204 59 136 0.0 0.0 0.00 0.00 0.00 75 1010.8
20260505022704 60 148 0.0 0.0 0.00 0.00 0.00 72 1010.9
20260505022203 60 159 0.0 0.0 0.00 0.00 0.00 71 1011.2
20260505021716 60 162 0.0 2.0 0.00 0.00 0.00 69 1010.9
20260505021203 60 169 0.0 5.0 0.00 0.00 0.00 68 1010.8
20260505020703 60 180 0.0 5.0 0.00 0.00 0.00 68 1011.2
20260505020203 60 200 1.0 5.0 0.00 0.00 0.00 66 1010.8
20260505015203 61 164 1.0 7.0 0.00 0.00 0.00 66 1011.1
20260505014704 61 183 1.0 5.0 0.00 0.00 0.00 66 1011.2
20260505014205 61 173 0.0 0.0 0.00 0.00 0.00 65 1010.8
20260505013706 61 153 0.0 5.0 0.00 0.00 0.00 64 1011.0
20260505013203 60 166 0.0 5.0 0.00 0.00 0.00 63 1010.8
20260505012703 60 173 0.0 5.0 0.00 0.00 0.00 62 1010.8
20260505012204 60 173 0.0 7.0 0.00 0.00 0.00 62 1010.8
20260505011712 60 168 1.0 7.0 0.00 0.00 0.00 62 1010.5
20260505011204 60 179 2.0 5.0 0.00 0.00 0.00 63 1010.5
20260505010704 60 179 1.0 5.0 0.00 0.00 0.00 63 1010.5
20260505005204 61 143 0.0 0.0 0.00 0.00 0.00 67 1010.5
20260505004704 62 148 0.0 0.0 0.00 0.00 0.00 66 1010.5
20260505003703 63 149 0.0 0.0 0.00 0.00 0.00 65 1010.5
20260505003203 63 150 0.0 0.0 0.00 0.00 0.00 64 1010.2
20260505002703 64 140 0.0 0.0 0.00 0.00 0.00 63 1010.2
20260505002203 65 137 0.0 0.0 0.00 0.00 0.00 61 1010.2
20260505001703 66 137 0.0 0.0 0.00 0.00 0.00 59 1010.2
20260505001204 66 160 0.0 2.0 0.00 0.00 0.00 58 1010.2
20260505000704 67 137 0.0 2.0 0.00 0.00 0.00 57 1010.2
20260505000204 68 148 0.0 0.0 0.00 0.00 0.00 55 1010.0
20260504235203 69 177 1.0 5.0 0.00 0.00 0.00 46 1009.8
20260504234203 70 185 1.0 7.0 0.00 0.00 0.00 46 1009.8
20260504233706 70 178 1.0 5.0 0.00 0.00 0.00 45 1009.5
20260504232703 71 200 2.0 7.0 0.00 0.00 0.00 42 1009.5
20260504232203 71 207 5.0 13.0 0.00 0.00 0.00 41 1009.8
20260504231704 72 193 5.0 17.0 0.00 0.00 0.00 41 1009.5
20260504231203 72 181 5.0 17.0 0.00 0.00 0.00 41 1009.5
20260504230703 72 195 4.0 10.0 0.00 0.00 0.00 40 1009.5
20260504230205 73 205 3.0 7.0 0.00 0.00 0.00 39 1009.7
20260504225703 73 214 3.0 15.0 0.00 0.00 0.00 38 1009.5
20260504225203 73 194 2.0 7.0 0.00 0.00 0.00 39 1009.5
20260504224203 73 209 1.0 13.0 0.00 0.00 0.00 38 1009.5
20260504223704 73 182 4.0 13.0 0.00 0.00 0.00 38 1009.5
20260504223203 74 210 3.0 7.0 0.00 0.00 0.00 37 1009.5
20260504222703 74 211 2.0 5.0 0.00 0.00 0.00 37 1009.5
20260504222204 74 211 4.0 13.0 0.00 0.00 0.00 37 1009.5
20260504221704 74 237 2.0 10.0 0.00 0.00 0.00 37 1009.5
20260504221203 74 193 2.0 10.0 0.00 0.00 0.00 36 1009.3
20260504220703 74 190 3.0 10.0 0.00 0.00 0.00 36 1009.5
20260504220203 74 179 5.0 10.0 0.00 0.00 0.00 36 1009.5
20260504215206 74 223 2.0 13.0 0.00 0.00 0.00 37 1009.5
20260504214704 74 193 3.0 15.0 0.00 0.00 0.00 37 1009.5
20260504214203 75 186 5.0 10.0 0.00 0.00 0.00 37 1009.6
20260504213703 75 221 2.0 13.0 0.00 0.00 0.00 37 1009.5
20260504213206 75 207 4.0 13.0 0.00 0.00 0.00 37 1009.8
20260504212703 75 171 4.0 10.0 0.00 0.00 0.00 37 1009.7
20260504212203 75 189 6.0 17.0 0.00 0.00 0.00 36 1009.8
20260504211203 75 196 7.0 10.0 0.00 0.00 0.00 35 1009.8
20260504210203 75 158 6.0 15.0 0.00 0.00 0.00 37 1009.6
20260504204703 75 203 6.0 13.0 0.00 0.00 0.00 35 1009.5
20260504204203 75 200 1.0 10.0 0.00 0.00 0.00 36 1009.5
20260504203704 75 227 7.0 17.0 0.00 0.00 0.00 37 1009.5
20260504203203 75 234 3.0 15.0 0.00 0.00 0.00 37 1009.8
20260504202204 75 225 5.0 15.0 0.00 0.00 0.00 35 1009.6
20260504201703 75 203 1.0 13.0 0.00 0.00 0.00 36 1010.0
20260504201204 75 198 5.0 17.0 0.00 0.00 0.00 35 1009.5
20260504200703 75 219 10.0 17.0 0.00 0.00 0.00 35 1009.5
20260504200203 75 190 5.0 10.0 0.00 0.00 0.00 35 1009.8
20260504195706 74 207 3.0 15.0 0.00 0.00 0.00 34 1009.8
20260504195204 74 196 4.0 15.0 0.00 0.00 0.00 36 1009.8
20260504194704 74 206 6.0 13.0 0.00 0.00 0.00 35 1010.2
20260504193703 74 188 7.0 15.0 0.00 0.00 0.00 36 1010.2
20260504193204 74 202 3.0 10.0 0.00 0.00 0.00 35 1010.2
20260504192703 74 206 5.0 17.0 0.00 0.00 0.00 36 1010.2
20260504192204 74 217 5.0 15.0 0.00 0.00 0.00 37 1010.5
20260504191704 74 202 5.0 15.0 0.00 0.00 0.00 36 1010.3
20260504191203 74 223 2.0 10.0 0.00 0.00 0.00 35 1010.5
20260504190703 73 187 5.0 10.0 0.00 0.00 0.00 36 1010.5
20260504190203 73 77 2.0 15.0 0.00 0.00 0.00 38 1010.5
20260504185704 73 197 4.0 13.0 0.00 0.00 0.00 37 1010.5
20260504185203 73 208 6.0 13.0 0.00 0.00 0.00 36 1010.8
20260504184703 73 198 5.0 13.0 0.00 0.00 0.00 38 1010.7
20260504184204 73 232 3.0 17.0 0.00 0.00 0.00 36 1010.8
20260504183203 72 177 7.0 10.0 0.00 0.00 0.00 39 1010.8
20260504182703 72 177 6.0 10.0 0.00 0.00 0.00 39 1010.8
20260504182204 72 208 3.0 10.0 0.00 0.00 0.00 38 1011.2
20260504181703 72 212 3.0 10.0 0.00 0.00 0.00 38 1010.9
20260504181203 72 194 7.0 15.0 0.00 0.00 0.00 39 1011.2
20260504180703 71 210 7.0 17.0 0.00 0.00 0.00 39 1011.2
20260504180204 71 168 9.0 17.0 0.00 0.00 0.00 40 1011.2
20260504175203 71 217 5.0 10.0 0.00 0.00 0.00 40 1011.4
20260504174704 71 172 8.0 17.0 0.00 0.00 0.00 41 1011.8
20260504174203 71 183 7.0 15.0 0.00 0.00 0.00 41 1011.5
20260504173703 71 223 5.0 17.0 0.00 0.00 0.00 42 1011.6
20260504173203 71 218 7.0 17.0 0.00 0.00 0.00 41 1011.9
20260504172703 71 207 3.0 15.0 0.00 0.00 0.00 41 1011.8
20260504171703 71 224 3.0 10.0 0.00 0.00 0.00 39 1011.5
20260504171204 70 197 2.0 7.0 0.00 0.00 0.00 42 1011.9
20260504170704 70 197 5.0 13.0 0.00 0.00 0.00 41 1011.9
20260504170203 70 205 5.0 13.0 0.00 0.00 0.00 41 1011.9
20260504160203 69 226 4.0 15.0 0.00 0.00 0.00 40 1013.0
20260504150704 66 175 3.0 10.0 0.00 0.00 0.00 50 1013.2
20260504150203 66 216 3.0 7.0 0.00 0.00 0.00 51 1013.2
20260504141203 61 184 6.0 10.0 0.00 0.00 0.00 55 1013.2
20260504140203 61 188 7.0 10.0 0.00 0.00 0.00 55 1013.2
20260504130703 57 190 6.0 13.0 0.00 0.00 0.00 62 1013.9
20260504130204 57 184 7.0 13.0 0.00 0.00 0.00 63 1013.9